Time,TemperatureF,DewpointF,PressureIn,WindDirection,WindDirectionDegrees,WindSpeedMPH,WindSpeedGustMPH,Humidity,HourlyPrecipIn,Conditions,Clouds,dailyrainin,SoftwareType,DateUTC
2013-07-17 00:00:00,74.6,72.8,30.19,NE,49,0.0,0.0,94,0.00,,,0.00,Wunderground v.1.15,2013-07-17 04:00:00,
2013-07-17 00:05:00,74.6,72.8,30.18,NE,49,0.0,0.0,94,0.00,,,0.00,Wunderground v.1.15,2013-07-17 04:05:00,
2013-07-17 00:10:00,74.4,72.6,30.18,NE,49,0.0,0.0,94,0.00,,,0.00,Wunderground v.1.15,2013-07-17 04:10:00,
2013-07-17 00:15:00,74.3,72.5,30.18,NE,49,0.0,0.0,94,0.00,,,0.00,Wunderground v.1.15,2013-07-17 04:15:00,
2013-07-17 00:25:00,74.2,72.4,30.18,NE,49,0.0,0.0,94,0.00,,,0.00,Wunderground v.1.15,2013-07-17 04:25:00,
2013-07-17 00:35:00,74.2,72.7,30.17,NE,49,0.0,0.0,95,0.00,,,0.00,Wunderground v.1.15,2013-07-17 04:35:00,
2013-07-17 00:40:00,74.3,72.8,30.17,NE,49,0.0,0.0,95,0.00,,,0.00,Wunderground v.1.15,2013-07-17 04:40:00,
2013-07-17 00:50:00,74.3,72.5,30.17,NE,49,0.0,0.0,94,0.00,,,0.00,Wunderground v.1.15,2013-07-17 04:50:00,
2013-07-17 01:00:00,74.3,72.8,30.17,NE,49,0.0,0.0,95,0.00,,,0.00,Wunderground v.1.15,2013-07-17 05:00:00,
2013-07-17 01:10:00,74.3,72.8,30.17,NE,49,0.0,0.0,95,0.00,,,0.00,Wunderground v.1.15,2013-07-17 05:10:00,
2013-07-17 01:15:00,74.3,72.8,30.17,NE,49,0.0,0.0,95,0.00,,,0.00,Wunderground v.1.15,2013-07-17 05:15:00,
2013-07-17 01:25:00,74.2,72.7,30.17,NE,49,0.0,0.0,95,0.00,,,0.00,Wunderground v.1.15,2013-07-17 05:25:00,
2013-07-17 01:30:00,74.1,72.3,30.17,NE,49,0.0,0.0,94,0.00,,,0.00,Wunderground v.1.15,2013-07-17 05:30:00,
2013-07-17 01:40:00,74.0,72.5,30.17,NE,49,0.0,0.0,95,0.00,,,0.00,Wunderground v.1.15,2013-07-17 05:40:00,
2013-07-17 01:50:00,73.8,72.3,30.17,NE,49,0.0,0.0,95,0.00,,,0.00,Wunderground v.1.15,2013-07-17 05:50:00,
2013-07-17 01:55:00,73.7,72.2,30.17,NE,49,0.0,0.0,95,0.00,,,0.00,Wunderground v.1.15,2013-07-17 05:55:00,
2013-07-17 02:05:00,73.6,72.1,30.18,NE,49,0.0,0.0,95,0.00,,,0.00,Wunderground v.1.15,2013-07-17 06:05:00,
2013-07-17 02:10:00,73.6,72.1,30.17,NE,49,0.0,0.0,95,0.00,,,0.00,Wunderground v.1.15,2013-07-17 06:10:00,
2013-07-17 02:20:00,73.6,72.1,30.17,NE,49,0.0,0.0,95,0.00,,,0.00,Wunderground v.1.15,2013-07-17 06:20:00,
2013-07-17 02:30:00,73.5,72.0,30.17,NE,49,0.0,0.0,95,0.00,,,0.00,Wunderground v.1.15,2013-07-17 06:30:00,
2013-07-17 02:40:00,73.6,72.1,30.17,NE,49,0.0,0.0,95,0.00,,,0.00,Wunderground v.1.15,2013-07-17 06:40:00,
2013-07-17 02:50:00,73.5,72.0,30.17,NE,49,0.0,0.0,95,0.00,,,0.00,Wunderground v.1.15,2013-07-17 06:50:00,
2013-07-17 02:55:00,73.5,72.0,30.17,NE,49,0.0,0.0,95,0.00,,,0.00,Wunderground v.1.15,2013-07-17 06:55:00,
2013-07-17 03:05:00,73.5,72.0,30.17,NE,49,0.0,0.0,95,0.00,,,0.00,Wunderground v.1.15,2013-07-17 07:05:00,
2013-07-17 03:10:00,73.5,72.0,30.17,NE,49,0.0,0.0,95,0.00,,,0.00,Wunderground v.1.15,2013-07-17 07:10:00,
2013-07-17 03:20:00,73.5,72.0,30.17,NE,49,0.0,0.0,95,0.00,,,0.00,Wunderground v.1.15,2013-07-17 07:20:00,
2013-07-17 03:30:00,73.6,72.4,30.17,NE,49,0.0,0.0,96,0.00,,,0.00,Wunderground v.1.15,2013-07-17 07:30:00,
2013-07-17 03:35:00,73.6,72.4,30.17,NE,49,0.0,0.0,96,0.00,,,0.00,Wunderground v.1.15,2013-07-17 07:35:00,
2013-07-17 03:45:00,73.6,72.4,30.16,NE,49,0.0,0.0,96,0.00,,,0.00,Wunderground v.1.15,2013-07-17 07:45:00,
2013-07-17 03:50:00,73.7,72.5,30.17,NE,49,0.0,0.0,96,0.00,,,0.00,Wunderground v.1.15,2013-07-17 07:50:00,
2013-07-17 04:00:00,73.7,72.2,30.16,NE,49,0.0,0.0,95,0.00,,,0.00,Wunderground v.1.15,2013-07-17 08:00:00,
2013-07-17 04:10:00,73.7,72.5,30.17,NE,49,0.0,0.0,96,0.00,,,0.00,Wunderground v.1.15,2013-07-17 08:10:00,
2013-07-17 04:15:00,73.7,72.5,30.17,NE,49,0.0,0.0,96,0.00,,,0.00,Wunderground v.1.15,2013-07-17 08:15:00,
2013-07-17 04:25:00,73.7,72.5,30.17,NE,49,0.0,0.0,96,0.00,,,0.00,Wunderground v.1.15,2013-07-17 08:25:00,
2013-07-17 04:35:00,73.8,72.6,30.17,NE,49,0.0,0.0,96,0.00,,,0.00,Wunderground v.1.15,2013-07-17 08:35:00,
2013-07-17 04:40:00,73.8,72.3,30.17,NE,49,0.0,0.0,95,0.00,,,0.00,Wunderground v.1.15,2013-07-17 08:40:00,
2013-07-17 04:50:00,73.8,72.3,30.17,NE,49,0.0,0.0,95,0.00,,,0.00,Wunderground v.1.15,2013-07-17 08:50:00,
2013-07-17 05:00:00,73.8,72.3,30.17,NE,49,0.0,0.0,95,0.00,,,0.00,Wunderground v.1.15,2013-07-17 09:00:00,
2013-07-17 05:05:00,73.8,72.3,30.17,NE,49,0.0,0.0,95,0.00,,,0.00,Wunderground v.1.15,2013-07-17 09:05:00,
2013-07-17 05:15:00,73.7,72.2,30.17,NE,49,0.0,0.0,95,0.00,,,0.00,Wunderground v.1.15,2013-07-17 09:15:00,
2013-07-17 05:20:00,73.7,72.2,30.17,NE,49,0.0,0.0,95,0.00,,,0.00,Wunderground v.1.15,2013-07-17 09:20:00,
2013-07-17 05:30:00,73.6,72.1,30.17,NE,49,0.0,0.0,95,0.00,,,0.00,Wunderground v.1.15,2013-07-17 09:30:00,
2013-07-17 05:40:00,73.5,72.0,30.17,NE,49,0.0,0.0,95,0.00,,,0.00,Wunderground v.1.15,2013-07-17 09:40:00,
2013-07-17 05:45:00,73.4,71.9,30.17,NE,49,0.0,0.0,95,0.00,,,0.00,Wunderground v.1.15,2013-07-17 09:45:00,
2013-07-17 05:55:00,73.4,71.9,30.17,NE,49,0.0,0.0,95,0.00,,,0.00,Wunderground v.1.15,2013-07-17 09:55:00,
2013-07-17 06:05:00,73.3,71.8,30.18,NE,49,0.0,0.0,95,0.00,,,0.00,Wunderground v.1.15,2013-07-17 10:05:00,
2013-07-17 06:10:00,73.3,71.8,30.18,NE,49,0.0,0.0,95,0.00,,,0.00,Wunderground v.1.15,2013-07-17 10:10:00,
2013-07-17 06:20:00,73.1,71.6,30.18,NE,49,0.0,0.0,95,0.00,,,0.00,Wunderground v.1.15,2013-07-17 10:20:00,
2013-07-17 06:30:00,73.1,71.6,30.18,NE,49,0.0,0.0,95,0.00,,,0.00,Wunderground v.1.15,2013-07-17 10:30:00,
2013-07-17 06:35:00,73.0,71.5,30.18,NE,49,0.0,0.0,95,0.00,,,0.00,Wunderground v.1.15,2013-07-17 10:35:00,
2013-07-17 06:45:00,73.0,71.5,30.18,NE,49,0.0,0.0,95,0.00,,,0.00,Wunderground v.1.15,2013-07-17 10:45:00,
2013-07-17 06:50:00,73.0,71.5,30.19,NE,49,0.0,0.0,95,0.00,,,0.00,Wunderground v.1.15,2013-07-17 10:50:00,
2013-07-17 07:00:00,73.0,71.5,30.19,NE,49,0.0,0.0,95,0.00,,,0.00,Wunderground v.1.15,2013-07-17 11:00:00,
2013-07-17 07:10:00,73.1,71.6,30.19,NE,49,0.0,0.0,95,0.00,,,0.00,Wunderground v.1.15,2013-07-17 11:10:00,
2013-07-17 07:15:00,73.1,71.6,30.18,NE,49,0.0,0.0,95,0.00,,,0.00,Wunderground v.1.15,2013-07-17 11:15:00,
2013-07-17 07:25:00,73.3,71.8,30.19,NE,49,0.0,0.0,95,0.00,,,0.00,Wunderground v.1.15,2013-07-17 11:25:00,
2013-07-17 07:30:00,73.4,71.9,30.19,NE,49,0.0,0.0,95,0.00,,,0.00,Wunderground v.1.15,2013-07-17 11:30:00,
2013-07-17 07:40:00,73.7,72.2,30.19,NE,49,0.0,0.0,95,0.00,,,0.00,Wunderground v.1.15,2013-07-17 11:40:00,
2013-07-17 07:50:00,74.1,72.6,30.19,NE,49,0.0,0.0,95,0.00,,,0.00,Wunderground v.1.15,2013-07-17 11:50:00,
2013-07-17 08:00:00,74.5,72.7,30.19,NE,49,0.0,0.0,94,0.00,,,0.00,Wunderground v.1.15,2013-07-17 12:00:00,
2013-07-17 08:05:00,74.8,73.0,30.19,NE,49,0.0,0.0,94,0.00,,,0.00,Wunderground v.1.15,2013-07-17 12:05:00,
2013-07-17 08:15:00,75.2,73.0,30.19,NE,49,0.0,0.0,93,0.00,,,0.00,Wunderground v.1.15,2013-07-17 12:15:00,
2013-07-17 08:20:00,75.4,72.9,30.19,NE,49,0.0,0.0,92,0.00,,,0.00,Wunderground v.1.15,2013-07-17 12:20:00,
2013-07-17 08:30:00,75.8,73.3,30.19,NE,49,0.0,0.0,92,0.00,,,0.00,Wunderground v.1.15,2013-07-17 12:30:00,
2013-07-17 08:40:00,76.3,73.5,30.20,NE,46,0.0,0.0,91,0.00,,,0.00,Wunderground v.1.15,2013-07-17 12:40:00,
2013-07-17 08:45:00,76.6,73.8,30.20,NE,46,0.0,0.0,91,0.00,,,0.00,Wunderground v.1.15,2013-07-17 12:45:00,
2013-07-17 08:55:00,77.3,74.1,30.20,NE,46,0.0,0.0,90,0.00,,,0.00,Wunderground v.1.15,2013-07-17 12:55:00,
2013-07-17 09:00:00,77.8,74.6,30.20,NE,46,0.0,0.0,90,0.00,,,0.00,Wunderground v.1.15,2013-07-17 13:00:00,
2013-07-17 09:10:00,78.9,75.0,30.20,NNW,346,0.0,0.0,88,0.00,,,0.00,Wunderground v.1.15,2013-07-17 13:10:00,
2013-07-17 09:20:00,80.0,75.4,30.20,NNW,346,0.0,0.0,86,0.00,,,0.00,Wunderground v.1.15,2013-07-17 13:20:00,
2013-07-17 09:25:00,80.2,74.9,30.20,NNW,346,0.0,0.0,84,0.00,,,0.00,Wunderground v.1.15,2013-07-17 13:25:00,
2013-07-17 09:35:00,80.5,75.6,30.20,NNW,346,0.0,0.0,85,0.00,,,0.00,Wunderground v.1.15,2013-07-17 13:35:00,
2013-07-17 09:45:00,80.9,76.3,30.20,North,360,0.0,0.0,86,0.00,,,0.00,Wunderground v.1.15,2013-07-17 13:45:00,
2013-07-17 09:55:00,81.9,75.9,30.20,NNW,328,0.0,0.0,82,0.00,,,0.00,Wunderground v.1.15,2013-07-17 13:55:00,
2013-07-17 10:00:00,82.0,75.2,30.20,NNW,328,0.0,0.0,80,0.00,,,0.00,Wunderground v.1.15,2013-07-17 14:00:00,
2013-07-17 10:10:00,82.5,75.3,30.20,NE,34,0.0,1.0,79,0.00,,,0.00,Wunderground v.1.15,2013-07-17 14:10:00,
2013-07-17 10:20:00,82.8,75.6,30.20,North,355,0.0,2.0,79,0.00,,,0.00,Wunderground v.1.15,2013-07-17 14:20:00,
2013-07-17 10:25:00,83.4,76.2,30.20,NE,46,0.0,2.0,79,0.00,,,0.00,Wunderground v.1.15,2013-07-17 14:25:00,
2013-07-17 10:35:00,83.6,76.0,30.20,NE,46,0.0,0.0,78,0.00,,,0.00,Wunderground v.1.15,2013-07-17 14:35:00,
2013-07-17 10:40:00,83.6,76.0,30.20,NE,46,0.0,0.0,78,0.00,,,0.00,Wunderground v.1.15,2013-07-17 14:40:00,
2013-07-17 10:50:00,83.5,75.9,30.20,NW,314,0.0,0.0,78,0.00,,,0.00,Wunderground v.1.15,2013-07-17 14:50:00,
2013-07-17 10:55:00,83.6,76.4,30.20,NW,314,0.0,0.0,79,0.00,,,0.00,Wunderground v.1.15,2013-07-17 14:55:00,
2013-07-17 11:00:00,84.1,77.6,30.20,NW,314,0.0,1.0,81,0.00,,,0.00,Wunderground v.1.15,2013-07-17 15:00:00,
2013-07-17 11:10:00,85.0,77.0,30.20,NW,316,0.0,0.0,77,0.00,,,0.00,Wunderground v.1.15,2013-07-17 15:10:00,
2013-07-17 11:15:00,85.3,78.0,30.20,NW,306,1.0,1.0,79,0.00,,,0.00,Wunderground v.1.15,2013-07-17 15:15:00,
2013-07-17 11:25:00,85.9,77.5,30.20,NNW,339,0.0,1.0,76,0.00,,,0.00,Wunderground v.1.15,2013-07-17 15:25:00,
2013-07-17 11:35:00,86.7,79.0,30.19,SW,230,0.0,0.0,78,0.00,,,0.00,Wunderground v.1.15,2013-07-17 15:35:00,
2013-07-17 11:40:00,87.2,77.5,30.19,SW,215,0.0,0.0,73,0.00,,,0.00,Wunderground v.1.15,2013-07-17 15:40:00,
2013-07-17 11:50:00,87.2,78.3,30.19,SW,215,0.0,1.0,75,0.00,,,0.00,Wunderground v.1.15,2013-07-17 15:50:00,
2013-07-17 11:55:00,87.1,78.2,30.19,WNW,291,0.0,1.0,75,0.00,,,0.00,Wunderground v.1.15,2013-07-17 15:55:00,
2013-07-17 12:05:00,87.6,78.7,30.19,North,355,0.0,0.0,75,0.00,,,0.00,Wunderground v.1.15,2013-07-17 16:05:00,
2013-07-17 12:15:00,88.1,78.3,30.19,NNW,346,0.0,4.0,73,0.00,,,0.00,Wunderground v.1.15,2013-07-17 16:15:00,
2013-07-17 12:20:00,88.3,77.7,30.19,North,5,0.0,0.0,71,0.00,,,0.00,Wunderground v.1.15,2013-07-17 16:20:00,
2013-07-17 12:30:00,88.7,78.5,30.18,SSE,161,0.0,0.0,72,0.00,,,0.00,Wunderground v.1.15,2013-07-17 16:30:00,
2013-07-17 12:40:00,89.1,78.0,30.18,South,174,0.0,0.0,70,0.00,,,0.00,Wunderground v.1.15,2013-07-17 16:40:00,
2013-07-17 12:45:00,89.3,77.3,30.18,ENE,61,0.0,0.0,68,0.00,,,0.00,Wunderground v.1.15,2013-07-17 16:45:00,
2013-07-17 12:55:00,89.7,78.2,30.18,WNW,288,0.0,0.0,69,0.00,,,0.00,Wunderground v.1.15,2013-07-17 16:55:00,
2013-07-17 13:00:00,89.9,78.8,30.18,WNW,288,0.0,0.0,70,0.00,,,0.00,Wunderground v.1.15,2013-07-17 17:00:00,
2013-07-17 13:10:00,90.1,77.7,30.17,North,5,0.0,0.0,67,0.00,,,0.00,Wunderground v.1.15,2013-07-17 17:10:00,
2013-07-17 13:15:00,90.2,78.6,30.17,North,5,0.0,0.0,69,0.00,,,0.00,Wunderground v.1.15,2013-07-17 17:15:00,
2013-07-17 13:25:00,90.7,79.1,30.17,NNW,342,0.0,0.0,69,0.00,,,0.00,Wunderground v.1.15,2013-07-17 17:25:00,
2013-07-17 13:35:00,90.2,77.3,30.16,NNE,17,0.0,0.0,66,0.00,,,0.00,Wunderground v.1.15,2013-07-17 17:35:00,
2013-07-17 13:40:00,89.7,78.6,30.16,NNE,17,0.0,0.0,70,0.00,,,0.00,Wunderground v.1.15,2013-07-17 17:40:00,
2013-07-17 13:50:00,90.0,76.2,30.15,NNE,30,0.0,0.0,64,0.00,,,0.00,Wunderground v.1.15,2013-07-17 17:50:00,
2013-07-17 13:55:00,90.4,77.0,30.15,NNW,345,0.0,0.0,65,0.00,,,0.00,Wunderground v.1.15,2013-07-17 17:55:00,
2013-07-17 14:05:00,91.1,78.6,30.14,NE,53,0.0,1.0,67,0.00,,,0.00,Wunderground v.1.15,2013-07-17 18:05:00,
2013-07-17 14:15:00,91.7,77.8,30.14,North,360,0.0,1.0,64,0.00,,,0.00,Wunderground v.1.15,2013-07-17 18:15:00,
2013-07-17 14:20:00,91.8,78.8,30.14,NW,306,0.0,1.0,66,0.00,,,0.00,Wunderground v.1.15,2013-07-17 18:20:00,
2013-07-17 14:30:00,91.7,76.3,30.14,SSW,212,0.0,0.0,61,0.00,,,0.00,Wunderground v.1.15,2013-07-17 18:30:00,
2013-07-17 14:35:00,91.8,77.4,30.14,East,79,0.0,1.0,63,0.00,,,0.00,Wunderground v.1.15,2013-07-17 18:35:00,
2013-07-17 14:45:00,91.7,77.8,30.14,East,100,0.0,0.0,64,0.00,,,0.00,Wunderground v.1.15,2013-07-17 18:45:00,
2013-07-17 14:50:00,91.4,78.0,30.14,East,101,0.0,0.0,65,0.00,,,0.00,Wunderground v.1.15,2013-07-17 18:50:00,
2013-07-17 15:00:00,91.8,76.9,30.14,East,101,0.0,0.0,62,0.00,,,0.00,Wunderground v.1.15,2013-07-17 19:00:00,
2013-07-17 15:10:00,91.8,76.4,30.13,East,101,0.0,0.0,61,0.00,,,0.00,Wunderground v.1.15,2013-07-17 19:10:00,
2013-07-17 15:15:00,91.3,75.5,30.13,East,101,0.0,0.0,60,0.00,,,0.00,Wunderground v.1.15,2013-07-17 19:15:00,
2013-07-17 15:25:00,90.6,76.7,30.13,East,101,0.0,0.0,64,0.00,,,0.00,Wunderground v.1.15,2013-07-17 19:25:00,
2013-07-17 15:30:00,90.3,74.0,30.12,East,101,0.0,0.0,59,0.00,,,0.00,Wunderground v.1.15,2013-07-17 19:30:00,
2013-07-17 15:40:00,89.3,75.0,30.13,East,101,0.0,0.0,63,0.00,,,0.00,Wunderground v.1.15,2013-07-17 19:40:00,
2013-07-17 15:50:00,88.6,76.7,30.12,East,101,0.0,0.0,68,0.00,,,0.00,Wunderground v.1.15,2013-07-17 19:50:00,
2013-07-17 15:55:00,88.5,76.1,30.13,East,101,0.0,0.0,67,0.00,,,0.00,Wunderground v.1.15,2013-07-17 19:55:00,
2013-07-17 16:05:00,88.6,78.4,30.12,East,101,0.0,0.0,72,0.00,,,0.00,Wunderground v.1.15,2013-07-17 20:05:00,
2013-07-17 16:10:00,88.8,77.7,30.11,East,101,0.0,0.0,70,0.00,,,0.00,Wunderground v.1.15,2013-07-17 20:10:00,
2013-07-17 16:20:00,89.0,76.6,30.11,East,101,0.0,0.0,67,0.00,,,0.00,Wunderground v.1.15,2013-07-17 20:20:00,
2013-07-17 16:25:00,89.0,77.5,30.11,East,101,0.0,0.0,69,0.00,,,0.00,Wunderground v.1.15,2013-07-17 20:25:00,
2013-07-17 16:35:00,89.5,76.6,30.10,East,101,0.0,0.0,66,0.00,,,0.00,Wunderground v.1.15,2013-07-17 20:35:00,
2013-07-17 16:45:00,90.0,76.2,30.09,East,100,0.0,0.0,64,0.00,,,0.00,Wunderground v.1.15,2013-07-17 20:45:00,
2013-07-17 16:50:00,90.1,75.8,30.09,East,100,0.0,1.0,63,0.00,,,0.00,Wunderground v.1.15,2013-07-17 20:50:00,
2013-07-17 17:00:00,90.1,75.8,30.10,WSW,249,0.0,0.0,63,0.00,,,0.00,Wunderground v.1.15,2013-07-17 21:00:00,
2013-07-17 17:10:00,90.6,74.8,30.10,WSW,249,0.0,0.0,60,0.00,,,0.00,Wunderground v.1.15,2013-07-17 21:10:00,
2013-07-17 17:15:00,90.6,74.8,30.10,WSW,249,0.0,0.0,60,0.00,,,0.00,Wunderground v.1.15,2013-07-17 21:15:00,
2013-07-17 17:25:00,90.2,75.9,30.10,WNW,288,0.0,0.0,63,0.00,,,0.00,Wunderground v.1.15,2013-07-17 21:25:00,
2013-07-17 17:35:00,89.3,76.0,30.09,NE,38,0.0,0.0,65,0.00,,,0.00,Wunderground v.1.15,2013-07-17 21:35:00,
2013-07-17 17:40:00,89.0,76.2,30.09,NE,38,0.0,0.0,66,0.00,,,0.00,Wunderground v.1.15,2013-07-17 21:40:00,
2013-07-17 17:50:00,88.2,76.7,30.08,NE,38,0.0,0.0,69,0.00,,,0.00,Wunderground v.1.15,2013-07-17 21:50:00,
2013-07-17 18:00:00,87.9,76.9,30.08,NE,38,0.0,0.0,70,0.00,,,0.00,Wunderground v.1.15,2013-07-17 22:00:00,
2013-07-17 18:10:00,87.8,76.8,30.08,NE,38,0.0,0.0,70,0.00,,,0.00,Wunderground v.1.15,2013-07-17 22:10:00,
2013-07-17 18:15:00,87.6,77.5,30.08,NE,54,0.0,0.0,72,0.00,,,0.00,Wunderground v.1.15,2013-07-17 22:15:00,
2013-07-17 18:25:00,87.1,77.4,30.08,NE,54,0.0,0.0,73,0.00,,,0.00,Wunderground v.1.15,2013-07-17 22:25:00,
2013-07-17 18:35:00,86.3,77.4,30.09,NE,54,0.0,0.0,75,0.00,,,0.00,Wunderground v.1.15,2013-07-17 22:35:00,
2013-07-17 18:40:00,85.8,77.4,30.09,NE,54,0.0,0.0,76,0.00,,,0.00,Wunderground v.1.15,2013-07-17 22:40:00,
2013-07-17 18:50:00,85.3,77.3,30.10,NE,54,0.0,0.0,77,0.00,,,0.00,Wunderground v.1.15,2013-07-17 22:50:00,
2013-07-17 19:00:00,84.3,75.9,30.11,SW,221,1.0,1.0,76,0.00,,,0.00,Wunderground v.1.15,2013-07-17 23:00:00,
2013-07-17 19:10:00,83.0,75.4,30.11,West,269,1.0,1.0,78,0.00,,,0.00,Wunderground v.1.15,2013-07-17 23:10:00,
2013-07-17 19:15:00,82.5,74.9,30.11,WSW,246,1.0,2.0,78,0.00,,,0.00,Wunderground v.1.15,2013-07-17 23:15:00,
2013-07-17 19:25:00,81.4,73.9,30.11,WNW,298,1.0,2.0,78,0.00,,,0.00,Wunderground v.1.15,2013-07-17 23:25:00,
2013-07-17 19:30:00,80.9,73.0,30.11,WSW,248,1.0,1.0,77,0.00,,,0.00,Wunderground v.1.15,2013-07-17 23:30:00,
2013-07-17 19:40:00,80.3,73.2,30.12,West,265,1.0,1.0,79,0.00,,,0.00,Wunderground v.1.15,2013-07-17 23:40:00,
2013-07-17 19:45:00,80.0,73.3,30.12,SW,227,1.0,3.0,80,0.00,,,0.00,Wunderground v.1.15,2013-07-17 23:45:00,
2013-07-17 19:55:00,79.7,73.0,30.12,West,270,0.0,0.0,80,0.00,,,0.00,Wunderground v.1.15,2013-07-17 23:55:00,
2013-07-17 20:05:00,79.4,73.1,30.11,WSW,258,0.0,0.0,81,0.00,,,0.00,Wunderground v.1.15,2013-07-18 00:05:00,
2013-07-17 20:10:00,79.2,73.2,30.11,SE,134,0.0,0.0,82,0.00,,,0.00,Wunderground v.1.15,2013-07-18 00:10:00,
2013-07-17 20:20:00,78.8,73.2,30.11,SE,134,0.0,0.0,83,0.00,,,0.00,Wunderground v.1.15,2013-07-18 00:20:00,
2013-07-17 20:30:00,78.3,73.4,30.12,SE,134,0.0,0.0,85,0.00,,,0.00,Wunderground v.1.15,2013-07-18 00:30:00,
2013-07-17 20:35:00,77.9,73.4,30.12,SE,134,0.0,0.0,86,0.00,,,0.00,Wunderground v.1.15,2013-07-18 00:35:00,
2013-07-17 20:45:00,77.3,73.1,30.13,SE,134,0.0,0.0,87,0.00,,,0.00,Wunderground v.1.15,2013-07-18 00:45:00,
2013-07-17 20:55:00,76.8,73.0,30.13,SE,134,0.0,0.0,88,0.00,,,0.00,Wunderground v.1.15,2013-07-18 00:55:00,
2013-07-17 21:00:00,76.7,72.9,30.12,SE,134,0.0,0.0,88,0.00,,,0.00,Wunderground v.1.15,2013-07-18 01:00:00,
2013-07-17 21:10:00,76.4,72.9,30.12,SE,134,0.0,0.0,89,0.00,,,0.00,Wunderground v.1.15,2013-07-18 01:10:00,
2013-07-17 21:20:00,76.3,73.1,30.13,SE,134,0.0,0.0,90,0.00,,,0.00,Wunderground v.1.15,2013-07-18 01:20:00,
2013-07-17 21:25:00,76.2,73.1,30.12,SE,134,0.0,0.0,90,0.00,,,0.00,Wunderground v.1.15,2013-07-18 01:25:00,
2013-07-17 21:35:00,76.2,73.1,30.12,SE,134,0.0,0.0,90,0.00,,,0.00,Wunderground v.1.15,2013-07-18 01:35:00,
2013-07-17 21:40:00,76.1,73.0,30.12,SE,134,0.0,0.0,90,0.00,,,0.00,Wunderground v.1.15,2013-07-18 01:40:00,
2013-07-17 21:50:00,76.0,72.9,30.12,SE,134,0.0,0.0,90,0.00,,,0.00,Wunderground v.1.15,2013-07-18 01:50:00,
2013-07-17 21:55:00,75.9,73.1,30.12,SE,134,0.0,0.0,91,0.00,,,0.00,Wunderground v.1.15,2013-07-18 01:55:00,
2013-07-17 22:05:00,75.8,73.0,30.12,SE,134,0.0,0.0,91,0.00,,,0.00,Wunderground v.1.15,2013-07-18 02:05:00,
2013-07-17 22:15:00,75.7,72.9,30.12,SE,134,0.0,0.0,91,0.00,,,0.00,Wunderground v.1.15,2013-07-18 02:15:00,
2013-07-17 22:25:00,75.5,73.0,30.13,SE,134,0.0,0.0,92,0.00,,,0.00,Wunderground v.1.15,2013-07-18 02:25:00,
2013-07-17 22:30:00,75.4,72.9,30.13,SE,134,0.0,0.0,92,0.00,,,0.00,Wunderground v.1.15,2013-07-18 02:30:00,
2013-07-17 22:40:00,75.3,72.8,30.13,SE,134,0.0,0.0,92,0.00,,,0.00,Wunderground v.1.15,2013-07-18 02:40:00,
2013-07-17 22:50:00,75.1,72.6,30.13,SE,134,0.0,0.0,92,0.00,,,0.00,Wunderground v.1.15,2013-07-18 02:50:00,
2013-07-17 23:00:00,74.9,72.7,30.13,SE,134,0.0,0.0,93,0.00,,,0.00,Wunderground v.1.15,2013-07-18 03:00:00,
2013-07-17 23:05:00,74.8,72.6,30.13,SE,134,0.0,0.0,93,0.00,,,0.00,Wunderground v.1.15,2013-07-18 03:05:00,
2013-07-17 23:15:00,74.7,72.5,30.13,SE,134,0.0,0.0,93,0.00,,,0.00,Wunderground v.1.15,2013-07-18 03:15:00,
2013-07-17 23:20:00,74.6,72.4,30.13,SE,134,0.0,0.0,93,0.00,,,0.00,Wunderground v.1.15,2013-07-18 03:20:00,
2013-07-17 23:30:00,74.5,72.7,30.12,SE,134,0.0,0.0,94,0.00,,,0.00,Wunderground v.1.15,2013-07-18 03:30:00,
2013-07-17 23:40:00,74.4,72.6,30.12,SE,134,0.0,0.0,94,0.00,,,0.00,Wunderground v.1.15,2013-07-18 03:40:00,
2013-07-17 23:50:00,74.2,72.4,30.11,SE,134,0.0,0.0,94,0.00,,,0.00,Wunderground v.1.15,2013-07-18 03:50:00,
2013-07-17 23:55:00,74.1,72.3,30.11,SE,134,0.0,0.0,94,0.00,,,0.00,Wunderground v.1.15,2013-07-18 03:55:00,